Weather History for Cambridge, MD

Change the Weather History Date:

Monday, August 11, 2014

  Actual Average (KESN) Record (KESN)
Temperature  
Mean Temperature 70 °F -  
Max Temperature 82 °F 85 °F 97 °F (1949)
Min Temperature 59 °F 65 °F 50 °F (1972)
Cooling Degree Days 6    
Growing Degree Days 20 (Base 50)    
Moisture  
Dew Point 61 °F    
Average Humidity 69    
Maximum Humidity 94    
Minimum Humidity 39    
Precipitation  
Precipitation 0.00 in - - ()
Sea Level Pressure  
Sea Level Pressure 30.10 in    
Wind  
Wind Speed 3 mph (SE)    
Max Wind Speed 13 mph    
Max Gust Speed -    
Visibility 10 miles    
Events      
Averages and records for this station are not official NWS values.
T = Trace of Precipitation, MM = Missing Value Source: NWS Daily Summary

Daily Weather History Graph

Daily Weather History Graph

Search for Another Location

Airport:

Trip Planner

Search our weather history database for the weather conditions in past years. The results will help you decide how hot, cold, wet, or windy it might be!

Date:

Astronomy

Aug. 11, 2014 Rise Set
Actual Time 6:14 AM EDT 8:03 PM EDT
Civil Twilight 5:46 AM EDT 8:31 PM EDT
Nautical Twilight 5:11 AM EDT 9:06 PM EDT
Astronomical Twilight 4:34 AM EDT 9:43 PM EDT
Moon 8:31 PM EDT (8/11) 7:15 AM EDT (8/11)
Length of Visible Light 14h 45m
Length of Day
13h 48m
Full, 99% of the Moon is Illuminated
Aug 11
Full
Aug 17
Last Quarter
Aug 25
New
Sep 2
First Quarter
Sep 8
Full

Hourly Weather History & Observations

Time (EDT) Temp. Heat Index Dew Point Humidity Pressure Visibility Wind Dir Wind Speed Gust Speed Precip Events Conditions
12:07 AM 64.4 °F - 60.8 °F 88% 30.12 in 10.0 mi Calm Calm - N/A   Clear
12:27 AM 62.6 °F - 59.0 °F 88% 30.12 in 10.0 mi Calm Calm - N/A   Clear
1:27 AM 62.6 °F - 59.0 °F 88% 30.12 in 10.0 mi Calm Calm - N/A   Clear
2:07 AM 62.6 °F - 59.0 °F 88% 30.12 in 10.0 mi Calm Calm - N/A   Clear
2:27 AM 60.8 °F - 59.0 °F 94% 30.11 in 10.0 mi Calm Calm - N/A   Clear
2:47 AM 60.8 °F - 59.0 °F 94% 30.11 in 10.0 mi Calm Calm - N/A   Clear
3:07 AM 60.8 °F - 59.0 °F 94% 30.11 in 10.0 mi Calm Calm - N/A   Clear
3:27 AM 60.8 °F - 59.0 °F 94% 30.11 in 10.0 mi Calm Calm - N/A   Clear
3:47 AM 60.8 °F - 59.0 °F 94% 30.10 in 10.0 mi Calm Calm - N/A   Clear
4:07 AM 60.8 °F - 59.0 °F 94% 30.11 in 10.0 mi Calm Calm - N/A   Clear
4:27 AM 60.8 °F - 59.0 °F 94% 30.11 in 10.0 mi Calm Calm - N/A   Clear
5:07 AM 59.0 °F - 55.4 °F 88% 30.11 in 10.0 mi Calm Calm - N/A   Clear
5:27 AM 59.0 °F - 55.4 °F 88% 30.11 in 10.0 mi Calm Calm - N/A   Clear
5:47 AM 59.0 °F - 55.4 °F 88% 30.11 in 10.0 mi Calm Calm - N/A   Clear
6:07 AM 60.8 °F - 57.2 °F 88% 30.12 in 10.0 mi Calm Calm - N/A   Clear
6:27 AM 59.0 °F - 55.4 °F 88% 30.11 in 10.0 mi Calm Calm - N/A   Clear
6:48 AM 60.8 °F - 59.0 °F 94% 30.11 in 10.0 mi Calm Calm - N/A   Clear
7:08 AM 60.8 °F - 59.0 °F 94% 30.11 in 10.0 mi Calm Calm - N/A   Clear
7:28 AM 62.6 °F - 59.0 °F 88% 30.11 in 10.0 mi Calm Calm - N/A   Clear
7:48 AM 66.2 °F - 60.8 °F 83% 30.12 in 10.0 mi Calm Calm - N/A   Clear
8:08 AM 69.8 °F - 62.6 °F 78% 30.11 in 10.0 mi ESE 4.6 mph - N/A   Clear
8:28 AM 71.6 °F - 62.6 °F 73% 30.12 in 10.0 mi East 4.6 mph - N/A   Clear
8:48 AM 73.4 °F - 62.6 °F 69% 30.11 in 10.0 mi East 5.8 mph - N/A   Clear
9:08 AM 77.0 °F - 64.4 °F 65% 30.12 in 10.0 mi East 5.8 mph - N/A   Clear
9:28 AM 77.0 °F - 64.4 °F 65% 30.12 in 10.0 mi ESE 5.8 mph - N/A   Clear
9:48 AM 77.0 °F - 64.4 °F 65% 30.13 in 10.0 mi SE 5.8 mph - N/A   Clear
10:08 AM 77.0 °F - 64.4 °F 65% 30.13 in 10.0 mi ESE 6.9 mph - N/A   Clear
10:28 AM 77.0 °F - 62.6 °F 61% 30.13 in 10.0 mi ESE 6.9 mph - N/A   Clear
10:48 AM 77.0 °F - 64.4 °F 65% 30.13 in 10.0 mi ESE 5.8 mph - N/A   Clear
11:08 AM 78.8 °F - 62.6 °F 57% 30.13 in 10.0 mi SE 8.1 mph - N/A   Clear
11:28 AM 78.8 °F - 62.6 °F 57% 30.13 in 10.0 mi ESE 9.2 mph - N/A   Clear
11:48 AM 78.8 °F - 60.8 °F 54% 30.12 in 10.0 mi ESE 9.2 mph - N/A   Clear
12:08 PM 80.6 °F 81.5 °F 60.8 °F 51% 30.12 in 10.0 mi East 5.8 mph - N/A   Clear
12:28 PM 80.6 °F 81.5 °F 60.8 °F 51% 30.12 in 10.0 mi South 4.6 mph - N/A   Scattered Clouds
12:48 PM 78.8 °F - 60.8 °F 54% 30.12 in 10.0 mi ESE 6.9 mph - N/A   Scattered Clouds
1:08 PM 80.6 °F 81.8 °F 62.6 °F 54% 30.11 in 10.0 mi ESE 6.9 mph - N/A   Mostly Cloudy
1:28 PM 80.6 °F 81.5 °F 60.8 °F 51% 30.10 in 10.0 mi SE 9.2 mph - N/A   Mostly Cloudy
1:48 PM 80.6 °F 81.5 °F 60.8 °F 51% 30.10 in 10.0 mi SE 10.4 mph - N/A   Scattered Clouds
2:08 PM 80.6 °F 81.5 °F 60.8 °F 51% 30.10 in 10.0 mi SE 6.9 mph - N/A   Mostly Cloudy
2:28 PM 82.4 °F 82.5 °F 59.0 °F 45% 30.09 in 10.0 mi SE 10.4 mph - N/A   Scattered Clouds
2:48 PM 82.4 °F 82.5 °F 59.0 °F 45% 30.08 in 10.0 mi SE 9.2 mph - N/A   Clear
3:09 PM 82.4 °F 82.5 °F 59.0 °F 45% 30.09 in 10.0 mi SSE 10.4 mph - N/A   Scattered Clouds
3:29 PM 80.6 °F 80.5 °F 55.4 °F 42% 30.08 in 10.0 mi SSE 8.1 mph - N/A   Scattered Clouds
3:49 PM 82.4 °F 81.7 °F 55.4 °F 39% 30.08 in 10.0 mi SE 9.2 mph - N/A   Clear
4:09 PM 82.4 °F 82.0 °F 57.2 °F 42% 30.07 in 10.0 mi SE 11.5 mph - N/A   Clear
4:29 PM 82.4 °F 82.5 °F 59.0 °F 45% 30.07 in 10.0 mi SE 12.7 mph - N/A   Clear
4:49 PM 80.6 °F 81.1 °F 59.0 °F 48% 30.07 in 10.0 mi ESE 9.2 mph - N/A   Clear
5:29 PM 78.8 °F - 60.8 °F 54% 30.06 in 10.0 mi SE 9.2 mph - N/A   Clear
6:09 PM 78.8 °F - 60.8 °F 54% 30.06 in 10.0 mi SE 6.9 mph - N/A   Clear
6:29 PM 78.8 °F - 62.6 °F 57% 30.05 in 10.0 mi SE 6.9 mph - N/A   Clear
6:49 PM 77.0 °F - 60.8 °F 57% 30.05 in 10.0 mi SE 8.1 mph - N/A   Clear
7:09 PM 77.0 °F - 60.8 °F 57% 30.06 in 10.0 mi SE 6.9 mph - N/A   Clear
7:29 PM 77.0 °F - 62.6 °F 61% 30.06 in 10.0 mi SE 6.9 mph - N/A   Clear
7:49 PM 77.0 °F - 62.6 °F 61% 30.05 in 10.0 mi ESE 6.9 mph - N/A   Clear
8:09 PM 73.4 °F - 62.6 °F 69% 30.06 in 10.0 mi SE 4.6 mph - N/A   Clear
8:29 PM 75.2 °F - 62.6 °F 65% 30.05 in 10.0 mi SE 5.8 mph - N/A   Clear
8:49 PM 73.4 °F - 62.6 °F 69% 30.05 in 10.0 mi SE 5.8 mph - N/A   Clear
9:09 PM 73.4 °F - 62.6 °F 69% 30.05 in 10.0 mi ESE 4.6 mph - N/A   Clear
9:29 PM 73.4 °F - 64.4 °F 73% 30.05 in 10.0 mi ESE 6.9 mph - N/A   Clear
9:49 PM 73.4 °F - 64.4 °F 73% 30.06 in 10.0 mi SE 4.6 mph - N/A   Clear
10:09 PM 71.6 °F - 64.4 °F 78% 30.05 in 10.0 mi SE 3.5 mph - N/A   Clear
11:29 PM 71.6 °F - 64.4 °F 78% 30.04 in 10.0 mi Calm Calm - N/A   Clear